Wind_Speed
17 17 19 21 20 20 22 23 22 22 22 20 18 18 23 22 23 22 22 25 24 25 22 19 17 17 16 14 15 13 12 13 14 14 15 14 14 15 14 15 15 15 15
15 19 20 21 19 19 21 22 22 22 22 20 21 20 22 21 20 22 21 22 22 22 20 18 16 13 13 13 12 12 11 12 14 14 14 13 15 15 15 15 14 14 14
15 21 22 21 20 19 20 19 17 18 20 19 19 20 20 20 20 20 20 20 20 19 18 16 15 14 12 12 11 12 12 13 14 13 13 13 13 15 15 15 13 13 13
16 20 18 18 19 20 20 19 17 17 18 18 18 17 18 17 17 17 17 17 17 15 14 13 12 12 11 11 11 12 12 13 14 13 14 13 13 15 14 14 13 12 12
20 18 19 18 18 18 17 16 15 15 14 16 16 17 17 16 15 14 13 13 15 14 12 11 10 10 10 11 11 12 12 12 13 13 13 13 14 14 14 13 13 12 11
21 20 19 18 18 17 14 14 14 13 13 13 13 14 14 14 14 12 11 10 11 11 10 10 9 9 10 11 12 12 12 12 12 13 12 12 13 13 13 12 12 11 11
21 19 17 15 13 13 15 14 13 12 11 12 14 14 13 12 12 11 10 9 9 9 9 8 9 8 10 12 12 13 12 12 14 12 12 11 11 12 12 12 11 10 10
20 19 17 17 14 12 15 15 13 11 11 10 11 16 14 11 10 9 9 10 9 8 9 8 9 9 9 12 12 13 12 11 13 11 10 9 8 9 9 10 9 9 8
19 19 18 17 18 14 13 14 13 10 10 10 10 10 12 9 8 9 10 11 9 7 8 9 9 10 10 12 13 13 13 12 12 11 9 8 7 7 7 8 8 8 7
18 19 19 17 18 17 14 13 12 11 10 10 11 10 9 10 9 9 8 8 8 8 7 9 9 10 11 12 12 12 11 11 10 11 8 7 6 6 6 6 6 6 6
19 20 20 19 18 17 16 14 13 12 11 11 12 11 10 10 8 6 6 8 9 9 8 9 10 10 12 12 11 10 13 13 11 10 9 7 6 6 5 5 5 5 5
12 19 20 20 19 17 16 15 14 13 14 14 15 13 11 9 9 9 9 9 11 11 10 10 11 11 12 13 12 11 12 11 11 10 8 7 5 5 5 5 5 5 5
6 16 19 20 19 18 17 15 15 14 15 17 16 14 12 9 8 10 10 9 10 10 10 11 12 13 14 14 13 13 12 11 10 9 7 6 5 5 6 6 6 6 6
6 11 17 21 20 19 17 16 14 14 13 17 20 15 14 13 13 12 11 11 10 11 12 11 12 14 15 15 15 14 13 13 11 10 8 7 6 6 6 6 7 6 6
8 9 15 20 21 20 18 16 15 14 13 15 16 16 17 14 14 14 13 12 11 13 12 12 13 14 15 16 15 13 13 14 12 11 9 8 8 7 7 7 7 7 7
8 8 12 18 21 22 20 17 15 15 14 14 15 14 13 13 13 12 13 14 14 15 15 15 15 16 16 17 16 15 13 14 13 12 10 11 11 11 9 9 9 9 8
9 8 8 14 21 23 21 20 19 17 17 16 15 15 15 15 15 15 14 14 14 16 17 17 17 17 17 18 17 16 15 15 13 13 12 10 10 11 11 11 11 10 9
13 11 10 11 16 22 23 22 21 20 19 18 17 16 16 16 17 15 13 12 13 14 15 16 18 17 18 17 17 17 17 16 15 12 13 10 9 9 11 12 13 14 13
15 15 13 12 12 17 23 25 24 23 22 21 20 19 19 18 18 15 14 13 13 14 15 16 17 17 18 18 17 18 18 17 17 16 14 13 13 12 13 16 16 15 15
20 20 18 16 15 15 21 26 28 28 26 25 23 22 20 20 19 17 16 15 15 16 15 15 15 16 17 18 19 20 19 18 18 18 17 16 16 16 16 18 18 18 17
25 25 26 22 18 19 19 22 28 30 29 28 26 24 24 23 22 21 20 18 18 17 15 14 15 16 18 18 19 20 20 19 19 19 19 18 17 17 19 19 19 20 19
26 29 30 28 25 23 20 18 20 25 29 29 28 28 26 26 25 24 23 21 21 20 19 19 18 17 18 19 19 20 20 19 20 21 20 18 18 18 19 20 21 21 22
20 30 32 32 30 26 24 22 24 24 29 33 34 31 29 27 26 25 25 25 24 24 22 23 22 21 21 21 19 21 21 20 15 15 17 17 18 19 20 21 20 21 22
12 18 28 29 32 32 29 29 27 24 22 23 26 29 30 30 29 28 27 27 27 26 25 24 25 24 23 22 24 23 21 22 21 19 20 23 22 22 23 24 24 25 26
15 11 15 26 31 35 36 33 30 27 23 21 23 27 30 32 31 30 29 28 28 28 27 26 26 26 26 26 27 26 24 23 24 24 26 26 23 24 25 28 28 28 30
16 16 12 16 25 33 37 39 37 32 28 26 24 22 23 28 30 32 31 29 27 26 27 27 27 27 27 30 28 28 27 28 27 28 29 28 26 23 25 28 30 32 34
Wind_Direction
157 151 133 126 127 124 125 123 124 127 134 134 127 124 123 122 127 127 133 135 134 135 132 131 132 135 125 119 118 113 105 111 114 113 110 109 105 103 106 108 111 109 109
155 152 139 134 132 128 131 130 130 129 128 128 127 128 122 124 127 130 135 137 138 137 138 137 136 138 125 128 121 112 107 111 110 107 106 106 105 104 105 108 107 109 107
155 150 143 138 137 131 132 133 135 132 132 131 130 128 129 129 129 129 138 144 145 148 146 142 137 140 131 132 125 115 116 114 109 106 107 105 106 104 104 102 104 104 104
150 150 150 147 143 140 137 140 139 136 134 135 131 136 136 137 133 129 137 145 149 154 151 149 145 143 137 132 126 120 117 120 117 114 114 118 111 105 103 101 100 104 107
151 150 147 149 151 144 143 141 144 141 139 137 139 140 140 137 138 137 143 149 146 150 156 159 163 160 145 138 134 127 124 126 123 124 128 125 116 110 107 108 108 104 104
150 151 148 147 147 152 143 149 148 150 148 143 141 144 141 146 145 151 151 156 158 158 161 163 164 171 154 149 142 135 135 134 132 131 135 129 125 119 116 114 110 107 105
154 156 153 154 159 165 155 150 151 151 154 158 151 148 151 153 155 162 165 168 176 165 165 168 167 173 169 159 153 140 143 143 136 141 140 135 132 128 125 121 118 115 114
164 168 167 166 163 158 160 153 147 147 150 157 163 160 155 158 162 165 176 184 187 172 171 165 162 169 172 168 162 149 150 151 142 141 138 140 138 133 132 129 130 126 127
178 180 177 172 176 174 172 165 158 158 163 160 163 170 157 161 170 171 179 188 192 178 177 168 167 169 166 164 162 160 155 155 150 142 145 150 149 149 145 139 138 141 144
189 187 186 187 182 181 186 185 185 187 184 181 176 171 180 173 181 177 172 174 191 191 187 171 170 172 171 169 164 162 164 161 161 151 159 167 166 170 163 155 147 151 154
199 196 190 190 192 189 195 200 201 202 199 195 194 200 197 193 193 192 175 177 192 200 197 183 178 176 178 180 176 178 170 169 169 164 170 181 184 188 184 175 165 161 163
204 205 198 191 190 192 197 198 203 204 203 191 228 214 205 199 195 199 205 202 193 199 201 195 187 183 185 188 186 180 174 176 175 177 178 186 201 208 196 194 187 180 183
198 211 209 199 191 193 200 198 200 201 200 190 213 210 213 203 221 213 210 219 207 202 205 204 196 191 196 192 194 190 190 184 184 187 187 202 210 231 220 205 201 204 196
225 210 211 209 198 197 200 201 200 203 196 196 213 208 211 213 217 223 222 224 222 221 211 212 208 198 201 198 201 201 196 190 199 201 195 211 222 230 233 221 205 206 211
238 211 211 215 208 202 204 206 200 200 199 200 214 214 214 220 219 222 222 226 221 221 222 217 217 208 205 204 206 208 203 197 205 214 217 217 229 228 226 225 216 211 220
241 227 214 213 214 210 205 209 207 202 202 202 207 212 217 217 217 222 233 230 220 220 221 217 218 215 209 209 214 220 216 208 208 221 226 235 238 237 234 233 224 219 222
255 240 227 214 216 215 211 209 212 210 207 206 203 204 203 208 212 216 224 231 229 221 222 218 221 218 215 213 218 221 224 224 225 232 235 229 238 234 239 242 245 241 239
254 266 248 223 218 216 215 213 215 217 214 212 208 208 203 203 204 214 222 227 233 232 226 224 226 225 222 223 224 226 229 233 235 240 230 223 220 233 241 251 248 249 251
236 248 259 253 229 217 216 219 219 220 219 219 216 212 207 206 210 213 218 230 235 238 235 230 229 230 228 230 232 234 237 238 241 241 240 241 245 247 254 249 251 257 257
221 232 239 244 241 227 218 218 220 222 222 223 222 220 218 214 215 222 226 232 236 237 242 240 236 233 234 234 237 241 238 240 241 243 245 248 252 251 252 254 261 260 260
221 224 230 236 238 238 236 231 223 222 223 227 225 226 223 224 224 224 227 232 235 239 243 246 243 241 236 237 238 243 248 247 247 249 250 252 256 260 260 257 255 258 262
241 232 229 230 235 237 238 240 243 234 228 231 231 230 230 230 230 230 231 231 234 237 238 242 247 249 245 242 241 244 249 254 254 253 256 259 263 265 265 265 264 265 265
262 245 243 235 231 235 237 237 237 239 235 228 227 229 230 234 237 238 237 237 237 237 238 241 245 242 246 249 247 248 249 252 245 256 278 260 262 266 268 270 271 268 269
322 259 240 239 239 235 233 237 238 243 249 255 246 237 234 235 236 238 241 241 244 242 241 244 246 247 245 246 248 256 255 258 256 259 258 272 266 266 268 270 271 273 273
314 314 252 234 232 231 231 233 238 239 240 241 244 243 235 236 238 238 240 242 245 248 245 244 245 246 246 247 247 251 256 257 258 258 255 259 274 279 272 272 272 275 281
303 294 285 255 239 231 229 229 232 232 236 238 240 244 244 242 238 237 237 240 243 247 250 247 246 245 247 249 249 250 252 254 257 261 263 265 269 268 270 271 278 279 281
Height
3162 3164 3165 3167 3170 3172 3175 3177 3180 3182 3185 3187 3187 3187 3187 3190 3192 3194 3196 3198 3199 3201 3203 3205 3207 3208 3209 3210 3211 3212 3213 3214 3214 3214 3214 3214 3214 3215 3216 3216 3216 3217 3217
3164 3166 3168 3170 3173 3174 3177 3179 3181 3184 3186 3188 3189 3191 3189 3193 3195 3196 3199 3201 3203 3204 3206 3208 3209 3211 3212 3212 3213 3213 3214 3215 3215 3215 3216 3217 3216 3217 3218 3219 3220 3220 3220
3166 3169 3170 3172 3174 3177 3179 3181 3183 3185 3187 3189 3191 3192 3194 3196 3198 3198 3201 3203 3205 3207 3208 3210 3211 3212 3213 3215 3215 3215 3216 3217 3217 3217 3219 3220 3220 3220 3221 3221 3222 3223 3223
3169 3172 3173 3175 3177 3179 3181 3183 3185 3187 3189 3191 3193 3195 3197 3199 3200 3201 3204 3206 3206 3209 3210 3212 3213 3215 3215 3216 3217 3217 3217 3218 3218 3220 3221 3223 3223 3223 3223 3224 3225 3225 3225
3171 3174 3176 3177 3179 3182 3184 3185 3187 3189 3191 3193 3195 3197 3199 3200 3202 3204 3206 3207 3208 3210 3212 3213 3215 3216 3216 3217 3218 3218 3219 3220 3220 3221 3224 3225 3225 3225 3225 3226 3227 3227 3228
3172 3175 3177 3180 3181 3183 3185 3187 3189 3191 3192 3194 3197 3199 3200 3202 3204 3206 3207 3209 3210 3210 3212 3214 3216 3217 3218 3219 3219 3219 3221 3222 3223 3224 3226 3227 3227 3227 3227 3228 3228 3229 3229
3173 3176 3178 3181 3183 3185 3186 3189 3191 3192 3194 3196 3198 3200 3202 3203 3205 3207 3208 3209 3211 3212 3213 3215 3216 3218 3219 3219 3220 3220 3223 3224 3224 3226 3227 3228 3229 3229 3229 3229 3230 3230 3231
3174 3176 3179 3181 3183 3186 3188 3190 3192 3194 3195 3197 3199 3201 3203 3204 3206 3207 3208 3210 3211 3212 3214 3215 3217 3218 3220 3220 3221 3222 3224 3226 3226 3228 3229 3230 3231 3231 3231 3231 3232 3233 3233
3175 3177 3179 3181 3183 3186 3189 3190 3192 3195 3196 3198 3200 3201 3203 3204 3205 3207 3208 3210 3211 3213 3215 3216 3217 3219 3220 3221 3222 3224 3225 3227 3228 3228 3230 3231 3232 3233 3233 3233 3233 3234 3234
3174 3176 3178 3180 3183 3185 3188 3190 3192 3194 3197 3198 3201 3202 3204 3206 3206 3207 3207 3209 3211 3213 3215 3217 3218 3219 3221 3222 3223 3225 3226 3228 3229 3230 3231 3232 3233 3234 3234 3234 3234 3235 3235
3172 3175 3177 3179 3182 3184 3186 3189 3192 3193 3196 3198 3200 3203 3203 3205 3206 3206 3207 3209 3211 3214 3215 3216 3218 3219 3221 3223 3224 3225 3227 3228 3230 3231 3232 3233 3234 3234 3234 3235 3235 3236 3237
3171 3173 3176 3178 3181 3183 3185 3188 3191 3193 3195 3198 3200 3202 3203 3205 3207 3208 3208 3210 3212 3214 3215 3216 3218 3219 3221 3222 3224 3226 3227 3228 3229 3231 3231 3233 3234 3234 3235 3235 3236 3236 3237
3171 3172 3175 3178 3180 3182 3184 3187 3189 3191 3194 3197 3198 3200 3201 3204 3205 3207 3208 3209 3211 3213 3214 3216 3217 3218 3220 3222 3224 3226 3227 3228 3230 3230 3232 3233 3234 3235 3235 3236 3236 3236 3236
3171 3171 3174 3177 3179 3182 3183 3185 3188 3190 3192 3196 3197 3200 3201 3203 3204 3207 3207 3209 3211 3212 3213 3215 3217 3218 3220 3221 3223 3225 3227 3228 3230 3230 3231 3233 3234 3234 3235 3236 3236 3236 3236
3171 3171 3172 3175 3178 3181 3183 3184 3187 3189 3191 3193 3195 3198 3200 3201 3203 3205 3207 3208 3210 3211 3212 3214 3216 3218 3220 3221 3223 3225 3226 3228 3229 3230 3231 3232 3233 3234 3234 3235 3235 3235 3236
3171 3172 3172 3174 3176 3179 3182 3184 3185 3188 3189 3191 3193 3195 3197 3199 3201 3203 3204 3206 3208 3210 3211 3213 3215 3217 3218 3220 3222 3224 3226 3227 3229 3230 3230 3231 3231 3233 3233 3233 3234 3234 3234
3171 3171 3172 3173 3175 3177 3180 3182 3184 3185 3187 3189 3191 3193 3195 3197 3199 3201 3203 3204 3205 3207 3209 3211 3212 3214 3217 3218 3220 3223 3224 3226 3227 3228 3229 3229 3229 3231 3231 3232 3233 3233 3233
3169 3171 3171 3172 3173 3175 3177 3180 3182 3184 3185 3187 3188 3190 3192 3194 3196 3198 3200 3202 3203 3205 3206 3208 3210 3212 3215 3217 3219 3221 3222 3223 3225 3226 3227 3227 3228 3230 3229 3230 3230 3231 3231
3166 3168 3169 3171 3171 3173 3175 3177 3179 3181 3183 3185 3187 3188 3190 3192 3194 3196 3197 3198 3200 3202 3204 3206 3208 3210 3212 3215 3217 3219 3220 3221 3222 3223 3224 3225 3226 3227 3227 3226 3227 3228 3228
3160 3163 3164 3166 3169 3170 3171 3173 3174 3176 3179 3182 3185 3187 3188 3189 3191 3193 3195 3196 3198 3200 3202 3203 3205 3207 3209 3212 3214 3215 3216 3217 3219 3219 3220 3221 3222 3223 3224 3224 3223 3224 3225
3155 3156 3159 3161 3164 3166 3168 3169 3170 3172 3175 3178 3180 3183 3185 3187 3188 3190 3192 3194 3195 3197 3199 3200 3202 3204 3206 3208 3210 3212 3213 3214 3215 3216 3217 3218 3219 3219 3220 3220 3220 3220 3220
3152 3152 3153 3156 3159 3162 3164 3167 3169 3171 3173 3175 3177 3178 3181 3182 3184 3186 3188 3190 3192 3193 3196 3198 3199 3202 3204 3205 3207 3208 3209 3212 3212 3213 3214 3214 3215 3216 3216 3217 3217 3217 3217
3148 3148 3149 3151 3154 3157 3160 3162 3164 3165 3167 3168 3169 3172 3175 3178 3180 3182 3184 3186 3187 3190 3193 3195 3196 3198 3200 3201 3203 3205 3206 3207 3210 3212 3211 3211 3212 3213 3213 3213 3213 3213 3213
3143 3142 3143 3145 3148 3151 3155 3156 3158 3161 3163 3166 3168 3169 3170 3173 3175 3177 3179 3181 3184 3186 3188 3190 3192 3194 3196 3197 3199 3201 3202 3203 3205 3207 3208 3208 3209 3209 3209 3209 3209 3208 3208
3141 3140 3138 3139 3140 3142 3146 3149 3152 3156 3158 3160 3161 3162 3164 3166 3168 3171 3173 3176 3178 3181 3183 3185 3188 3189 3191 3193 3194 3195 3197 3199 3200 3202 3203 3205 3205 3204 3203 3203 3203 3204 3202
3138 3137 3136 3134 3134 3135 3137 3139 3142 3147 3151 3153 3155 3157 3159 3161 3162 3163 3165 3169 3172 3175 3178 3179 3181 3183 3186 3186 3189 3191 3192 3193 3195 3197 3198 3200 3200 3201 3199 3198 3197 3197 3196